SAS4038 ENZV-ENGM

Flight info

Callsign SAS4038
Flight time 0h 36m
Altitude 29000
Route UPLEV DCT OSKOM DCT RIPAM
Aircraft E195/M-SDE3GILORVW/S

Departure

Time 2026-05-09 14:34
Airport Stavanger Airport, Sola (ENZV)

Arrival

Time 2026-05-09 15:10
Airport Oslo-Gardermoen International Airport (ENGM)
Time Latitude Longitude Altitude Speed Heading
2026-05-09 14:32 58.87020 5.63589 33 ft 2 kts 64°
2026-05-09 14:32 58.87061 5.63737 34 ft 19 kts 52°
2026-05-09 14:33 58.87115 5.63779 34 ft 0 kts
2026-05-09 14:33 58.87198 5.63789 33 ft 36 kts
2026-05-09 14:33 58.87777 5.63783 33 ft 112 kts 360°
2026-05-09 14:34 58.88849 5.63756 388 ft 157 kts 358°
2026-05-09 14:34 58.90111 5.63739 578 ft 205 kts 358°
2026-05-09 14:34 58.91503 5.63638 1662 ft 194 kts 358°
2026-05-09 14:34 58.92899 5.63579 2419 ft 207 kts 359°
2026-05-09 14:35 58.94373 5.63579 3218 ft 216 kts 358°
2026-05-09 14:35 58.95892 5.64044 3895 ft 230 kts 18°
2026-05-09 14:35 58.97251 5.65791 4550 ft 241 kts 46°
2026-05-09 14:35 58.98110 5.68621 5158 ft 248 kts 73°
2026-05-09 14:36 58.98564 5.71918 5645 ft 266 kts 79°
2026-05-09 14:36 58.98967 5.75620 6102 ft 285 kts 81°
2026-05-09 14:36 58.99388 5.79427 6811 ft 291 kts 80°
2026-05-09 14:36 58.99856 5.83299 7597 ft 292 kts 79°
2026-05-09 14:37 59.00333 5.87089 8342 ft 293 kts 79°
2026-05-09 14:37 59.00651 5.89652 8816 ft 295 kts 79°
2026-05-09 14:37 59.01125 5.93551 9523 ft 299 kts 79°
2026-05-09 14:37 59.01760 5.98858 10460 ft 307 kts 79°
2026-05-09 14:38 59.02076 6.01585 10694 ft 318 kts 80°
2026-05-09 14:38 59.02552 6.05882 11199 ft 330 kts 80°
2026-05-09 14:38 59.03039 6.10262 11937 ft 334 kts 80°
2026-05-09 14:38 59.03537 6.14694 12716 ft 338 kts 80°
2026-05-09 14:39 59.04037 6.19182 13512 ft 343 kts 80°
2026-05-09 14:39 59.04530 6.23741 14269 ft 347 kts 81°
2026-05-09 14:39 59.05018 6.28362 15047 ft 352 kts 81°
2026-05-09 14:39 59.05499 6.33067 15791 ft 358 kts 82°
2026-05-09 14:40 59.05972 6.37861 16513 ft 365 kts 82°
2026-05-09 14:40 59.06435 6.42736 17245 ft 369 kts 82°
2026-05-09 14:40 59.06896 6.47689 17952 ft 375 kts 82°
2026-05-09 14:40 59.07349 6.52726 18672 ft 381 kts 83°
2026-05-09 14:41 59.07798 6.57833 19319 ft 385 kts 83°
2026-05-09 14:41 59.08240 6.63005 19920 ft 391 kts 84°
2026-05-09 14:41 59.08670 6.68248 20541 ft 395 kts 84°
2026-05-09 14:41 59.09099 6.73563 21128 ft 400 kts 85°
2026-05-09 14:42 59.09519 6.78942 21724 ft 405 kts 85°
2026-05-09 14:42 59.09930 6.84389 22300 ft 410 kts 85°
2026-05-09 14:42 59.10351 6.89906 22922 ft 415 kts 84°
2026-05-09 14:42 59.10856 6.95471 23570 ft 421 kts 83°
2026-05-09 14:43 59.11387 7.01119 24120 ft 426 kts 83°
2026-05-09 14:43 59.11914 7.06824 24617 ft 432 kts 84°
2026-05-09 14:43 59.12439 7.12626 25114 ft 438 kts 83°
2026-05-09 14:43 59.13293 7.18382 25589 ft 449 kts 68°
2026-05-09 14:44 59.14734 7.23822 26099 ft 455 kts 60°
2026-05-09 14:44 59.16357 7.29159 26585 ft 460 kts 59°
2026-05-09 14:44 59.17988 7.34565 27073 ft 465 kts 60°
2026-05-09 14:44 59.19607 7.40066 27530 ft 470 kts 60°
2026-05-09 14:45 59.21230 7.45649 27961 ft 475 kts 60°
2026-05-09 14:45 59.22859 7.51291 28396 ft 479 kts 60°
2026-05-09 14:45 59.24496 7.56980 28820 ft 484 kts 60°
2026-05-09 14:45 59.26148 7.62737 29271 ft 486 kts 60°
2026-05-09 14:46 59.27828 7.68587 29291 ft 501 kts 60°
2026-05-09 14:46 59.29563 7.74597 29304 ft 514 kts 60°
2026-05-09 14:46 59.31342 7.80767 29146 ft 524 kts 60°
2026-05-09 14:46 59.33137 7.87009 29153 ft 528 kts 60°
2026-05-09 14:47 59.36723 7.99578 29149 ft 529 kts 60°
2026-05-09 14:47 59.40346 8.12347 29148 ft 529 kts 60°
2026-05-09 14:48 59.43932 8.25050 29134 ft 527 kts 60°
2026-05-09 14:48 59.47474 8.37669 29143 ft 527 kts 60°
2026-05-09 14:49 59.51001 8.50303 29140 ft 526 kts 60°
2026-05-09 14:49 59.54492 8.62842 29158 ft 523 kts 61°
2026-05-09 14:50 59.58004 8.75551 29148 ft 526 kts 61°
2026-05-09 14:50 59.61465 8.88128 29128 ft 523 kts 61°
2026-05-09 14:51 59.63177 8.94375 28684 ft 509 kts 61°
2026-05-09 14:51 59.64835 9.00437 28152 ft 496 kts 61°
2026-05-09 14:51 59.66467 9.06401 27474 ft 489 kts 62°
2026-05-09 14:51 59.68072 9.12274 26792 ft 482 kts 62°
2026-05-09 14:52 59.69650 9.18061 26167 ft 474 kts 62°
2026-05-09 14:52 59.71221 9.23827 25604 ft 464 kts 61°
2026-05-09 14:52 59.72976 9.28980 25572 ft 444 kts 52°
2026-05-09 14:52 59.74973 9.33672 24961 ft 444 kts 47°
2026-05-09 14:53 59.77023 9.38205 24457 ft 441 kts 47°
2026-05-09 14:53 59.79039 9.42772 23934 ft 437 kts 49°
2026-05-09 14:53 59.81008 9.47331 23382 ft 432 kts 49°
2026-05-09 14:53 59.82932 9.51840 22914 ft 425 kts 50°
2026-05-09 14:54 59.84853 9.56366 22423 ft 432 kts 50°
2026-05-09 14:54 59.86801 9.60967 21885 ft 437 kts 50°
2026-05-09 14:54 59.88753 9.65586 21374 ft 434 kts 50°
2026-05-09 14:54 59.90682 9.70159 20866 ft 429 kts 50°
2026-05-09 14:55 59.92595 9.74705 20370 ft 425 kts 50°
2026-05-09 14:55 59.94481 9.79201 19878 ft 421 kts 50°
2026-05-09 14:55 59.96348 9.83662 19396 ft 417 kts 50°
2026-05-09 14:55 59.98194 9.88083 18867 ft 413 kts 50°
2026-05-09 14:56 60.00016 9.92457 18425 ft 407 kts 51°
2026-05-09 14:56 60.01840 9.96849 17911 ft 402 kts 50°
2026-05-09 14:56 60.03616 10.01131 17464 ft 398 kts 50°
2026-05-09 14:56 60.05378 10.05389 17006 ft 396 kts 50°
2026-05-09 14:57 60.07202 10.09801 16408 ft 395 kts 50°
2026-05-09 14:57 60.08912 10.13950 15921 ft 387 kts 50°
2026-05-09 14:57 60.10633 10.18137 15444 ft 381 kts 50°
2026-05-09 14:57 60.12306 10.22215 15029 ft 377 kts 50°
2026-05-09 14:58 60.13967 10.26272 14590 ft 375 kts 50°
2026-05-09 14:58 60.15617 10.30312 14144 ft 374 kts 50°
2026-05-09 14:58 60.17282 10.34392 13689 ft 371 kts 50°
2026-05-09 14:58 60.18926 10.38434 13281 ft 367 kts 50°
2026-05-09 14:59 60.20543 10.42412 12849 ft 366 kts 50°
2026-05-09 14:59 60.22146 10.46369 12423 ft 364 kts 51°
2026-05-09 14:59 60.23740 10.50310 12006 ft 362 kts 51°
2026-05-09 14:59 60.25323 10.54220 11584 ft 359 kts 51°
2026-05-09 15:00 60.26895 10.58115 11173 ft 357 kts 51°
2026-05-09 15:00 60.28399 10.61861 10780 ft 355 kts 51°
2026-05-09 15:00 60.29946 10.65718 10373 ft 353 kts 51°
2026-05-09 15:00 60.31482 10.69554 9950 ft 351 kts 51°
2026-05-09 15:01 60.34519 10.77156 9164 ft 347 kts 52°
2026-05-09 15:01 60.36029 10.80948 8756 ft 345 kts 52°
2026-05-09 15:01 60.37528 10.84709 8367 ft 342 kts 52°
2026-05-09 15:02 60.39014 10.88452 7990 ft 342 kts 52°
2026-05-09 15:02 60.40043 10.91045 7673 ft 341 kts 52°
2026-05-09 15:02 60.41510 10.94752 7291 ft 337 kts 53°
2026-05-09 15:02 60.42971 10.98449 6941 ft 336 kts 52°
2026-05-09 15:03 60.44431 11.02141 6497 ft 336 kts 53°
2026-05-09 15:03 60.45673 11.06060 6135 ft 327 kts 71°
2026-05-09 15:03 60.46015 11.10323 5711 ft 292 kts 101°
2026-05-09 15:03 60.45339 11.13869 5427 ft 255 kts 134°
2026-05-09 15:04 60.44028 11.15902 5178 ft 227 kts 158°
2026-05-09 15:04 60.42641 11.17315 4870 ft 216 kts 155°
2026-05-09 15:06 60.34135 11.16447 3317 ft 160 kts 198°
2026-05-09 15:06 60.33084 11.15834 3108 ft 157 kts 197°
2026-05-09 15:06 60.32026 11.15224 2919 ft 160 kts 197°
2026-05-09 15:06 60.30951 11.14610 2696 ft 161 kts 195°
2026-05-09 15:07 60.29878 11.13981 2456 ft 160 kts 198°
2026-05-09 15:07 60.28813 11.13361 2243 ft 160 kts 195°
2026-05-09 15:07 60.27750 11.12736 2021 ft 156 kts 198°
2026-05-09 15:07 60.26714 11.12124 1794 ft 155 kts 198°
2026-05-09 15:08 60.25712 11.11545 1578 ft 148 kts 197°
2026-05-09 15:08 60.23706 11.10393 1142 ft 148 kts 196°
2026-05-09 15:08 60.22751 11.09837 945 ft 141 kts 196°
2026-05-09 15:09 60.21843 11.09301 780 ft 129 kts 197°
2026-05-09 15:10 60.19523 11.08614 675 ft 20 kts 107°
2026-05-09 15:11 60.19483 11.08899 683 ft 21 kts 105°
2026-05-09 15:11 60.19440 11.09178 684 ft 17 kts 108°
2026-05-09 15:11 60.19461 11.09257 682 ft 6 kts 18°
2026-05-09 15:11 60.19487 11.09271 684 ft 1 kts 15°